Location: Kerb�bon
(47.7970°N, 3.3487°W)
Time: 12:45:39
(UTC+00:00)

Cosmos 1536 - Pass Details

Date: 12 May 2021
Orbit: 539 x 558 km, 82.5° (Epoch: 18 June)

Event Time Altitude Azimuth Distance (km) Brightness Sun altitude
Rises 22:35:01 0° 344° (NNW) 2,746 7.9 -20.5°
Reaches altitude 10° 22:37:17 10° 337° (NNW) 1,843 6.7 -20.7°
Maximum altitude 22:41:05 40° 267° (W) 816 3.8 -20.9°
Enters shadow 22:42:07 34° 230° (SW) 929 3.8 -21.0°
